Location: Unspecified
(35.7250°N, 0.0000°E)
Time: 10:10:55
(UTC+00:00)

Explorer 7 - Pass Details

Date: 26 June 2019
Orbit: 485 x 680 km, 50.3° (Epoch: 24 August)

Event Time Altitude Azimuth Distance (km) Brightness Sun altitude
Rises 08:59:22 0° 288° (WNW) 2,753 10.0 48.6°
Reaches altitude 10° 09:02:28 10° 312° (NW) 1,904 9.4 49.3°
Maximum altitude 09:04:59 15° 348° (NNW) 1,641 9.3 49.8°
Drops below altitude 10° 09:07:36 10° 23° (NNE) 1,978 9.9 50.3°
Sets 09:10:55 0° 47° (NE) 2,930 10.9 51.0°
